User: anonymous   Login
Location: Fort Wayne
(41.1310°N, 85.1290°W)
Time: 01:16:13
(UTC-04:00)
Language:

Cosmos 2056 Rocket - Orbit

View from above orbital plane
View from above orbital plane
View from above satellite
View from above satellite

Ground track
Ground track

The orbit data is extracted from the following two-line orbital elements,

1 20433U 90004B   17083.77135019 +.00000034 +00000-0 +20809-4 0  9997
2 20433 074.0363 151.1323 0042063 300.1583 199.1337 14.35979638422802
Epoch (UTC): 24 March 2017 18:30:44
Eccentricity: 0.0042063
inclination: 74.0363°
perigee height: 742 km
apogee height: 802 km
right ascension of ascending node: 151.1323°
argument of perigee: 300.1583°
revolutions per day: 14.35979638
mean anomaly at epoch: 199.1337°
orbit number at epoch: 42280

The dashed part of the orbit path shows where the satellite is in the earth's shadow,  

DLR